User: anonymous   Login
Location: Unspecified
(0.0000°N, 0.0000°E)
Time: 20:55:48
(UTC+00:00)
Language:

HO-107 - Orbit

View from above orbital plane
View from above orbital plane
View from above satellite
View from above satellite

Ground track
Ground track

The orbit data is extracted from the following two-line orbital elements,

1 45119U 19071J   22267.37401437  .00028529  00000-0  52829-3 0  9991
2 45119  51.6358 291.9275 0007406 160.1489 199.9789 15.48748874148675
Epoch (UTC): 24 September 2022 08:58:34
Eccentricity: 0.0007406
inclination: 51.6358°
perigee height: 415 km
apogee height: 425 km
right ascension of ascending node: 291.9275°
argument of perigee: 160.1489°
revolutions per day: 15.48748874
mean anomaly at epoch: 199.9789°
orbit number at epoch: 14867

The dashed part of the orbit path shows where the satellite is in the earth's shadow,  

DLR